CZ-4C DEB, 43338

Orbit data source: Space-Track

CZ-4C DEB, 43338 is space debris in LEO originally from a launch on Tue, 10 Apr 2018 UTC launched from the Jiuquan Satellite Launch Center, China (JSC). Debris objects in space refer to the collection of defunct objects orbiting the Earth. Examples of debris include non-operational satellites, rocket bodies, and fragments generated from explosions, collisions, or faulty payload assembly.

Loading next visibility...
Identifier
43338, 2018-034H
Orbit
LEO
Last TLE update
11 hours ago
Origin
Manufacturer
Unknown
Mission
Spacecraft
Bus & Motor
Unknown
Mass
Unknown
Launch date (UTC)
2018-04-10 (7 years ago)
Launch vehicle
Unknown
Launch site
Jiuquan Satellite Launch Center, China (JSC)
Object type
Payload
Rocket body
Debris
Shape & HBR
Unknown
Radar Cross Section
Small (<0.1 m²)

Expand to show TLE details & history

TLE from 11 hours ago
0 CZ-4C DEB
1 43338U 18034H   25189.88722176 -.00000048  00000-0  60718-4 0  9992
2 43338  63.3964 261.7811 0244274   7.2845 353.1627 13.44697736355638
Epoch: 2025-07-08T21:17Z
TLE epoch observation values (Epoch: 2025-07-08T21:17:35.96Z)
Latitude
0.00005°
Longitude
15.30553°
Altitude
912.471 km
Speed
7.485 km/s
True Right ascension
17h 27m 07s
True Declination
0° 00' 00"
Sunlit
Object was in full shadow at epoch
Visualization orbit readout
Latitude
-21.71494°
Longitude
2.72774°
Altitude
942.075 km
Speed
7.457 km/s
Apparent Right ascension
13h 34m 23s
Apparent Declination
-51° 34' 54"
Sunlit
Object is in full shadow
Visualization observer readout
Local Sidereal Time
20:02:47
Azimuth
228.183° WSW
Elevation
-34.168°
Doppler factor
1
Orbital elements
Apogee altitude
1,273.103 km
Perigee altitude
908.217 km
Semi-major axis
7,468.797 km
Eccentricity
0.02443
Inclination
63.3964°
RAAN
261.7811°
Arg. of periapsis
7.2845°
True anomaly
Unknown
Mean anomaly
353.1627°
Eccentric anomaly
Unknown
Mean motion
3.36254 °/min
Orbital period
107.06 mins
BSTAR
0.000060718
Loading maneuver chart data...
Loading SW <> Apogee altitude chart data...
Loading historical data...
Loading historical data...
Loading historical data...
Loading historical data...
Loading historical data...
Loading historical data...
Loading historical data...

CZ-4C DEB Visibility forecast

Observer location: undefined°, undefined°

Span
Click to sort rows by Start time (UTC) header in descending order
Start Az.
Max El. time (UTC)
Max El. Az.
Max El.
End time (UTC)
End Az.
10 mins2025-07-09 08:11:12.831Z262.071° W2025-07-09 08:16:12.831Z319.112° NNW25.377°2025-07-09 08:21:12.831Z14.875° NNE
11 mins2025-07-09 13:52:12.831Z349.748° N2025-07-09 13:57:12.831Z45.398° ENE26.446°2025-07-09 14:03:12.831Z99.39° ESE
13 mins2025-07-09 15:42:12.831Z320.542° NNW2025-07-09 15:48:12.831Z235.92° WSW43.525°2025-07-09 15:55:12.831Z158.401° S
4 mins2025-07-09 17:36:12.831Z268.444° W2025-07-09 17:38:12.831Z251.98° W12.534°2025-07-09 17:40:12.831Z236.235° WSW
8 mins2025-07-10 05:33:12.831Z161.355° S2025-07-10 05:36:12.831Z119.552° SE27.827°2025-07-10 05:41:12.831Z56.048° ENE
10 mins2025-07-10 07:22:12.831Z244.822° WSW2025-07-10 07:27:12.831Z320.352° NNW34.793°2025-07-10 07:32:12.831Z21.117° NNE
|